Location: B?dimalle
(17.1788°N, 80.5377°E)
Time: 09:52:49
(UTC+00:00)

Tiros 1 despin weight - Pass Details

Date: 17 February 2026
Orbit: 556 x 593 km, 48.2° (Epoch: 10 March)

Event Time Altitude Azimuth Distance (km) Brightness Sun altitude
Rises 07:09:56 0° 203° (SSW) 2,761 ? 60.5°
Reaches altitude 10° 07:12:22 10° 193° (SSW) 1,858 ? 60.4°
Maximum altitude 07:16:12 33° 129° (SE) 957 ? 60.3°
Drops below altitude 10° 07:19:59 10° 65° (ENE) 1,841 ? 60.1°
Sets 07:22:23 0° 55° (NE) 2,732 ? 59.9°
